Time,TemperatureF,DewpointF,PressureIn,WindDirection,WindDirectionDegrees,WindSpeedMPH,WindSpeedGustMPH,Humidity,HourlyPrecipIn,Conditions,Clouds,dailyrainin,SoftwareType,DateUTC
2013-01-14 00:04:00,23.0,20.0,30.14,West,281,13.0,17.0,87,0.00,,,0.77,,2013-01-14 05:04:00,
2013-01-14 00:12:00,23.0,20.0,30.14,West,281,13.0,17.0,87,0.00,,,0.77,,2013-01-14 05:12:00,
2013-01-14 00:22:00,22.0,19.0,30.15,WSW,256,10.0,18.0,87,0.00,,,0.61,,2013-01-14 05:22:00,
2013-01-14 00:33:00,22.0,18.0,30.16,WSW,248,10.0,17.0,86,0.00,,,0.61,,2013-01-14 05:33:00,
2013-01-14 00:42:00,22.0,18.0,30.16,WSW,248,10.0,17.0,86,0.00,,,0.61,,2013-01-14 05:42:00,
2013-01-14 00:53:00,22.0,18.0,30.16,West,269,11.0,16.0,85,0.00,,,0.61,,2013-01-14 05:53:00,
2013-01-14 01:03:00,21.0,17.0,30.17,NW,320,9.0,16.0,86,0.00,,,0.61,,2013-01-14 06:03:00,
2013-01-14 01:12:00,21.0,17.0,30.17,NW,320,9.0,16.0,86,0.00,,,0.61,,2013-01-14 06:12:00,
2013-01-14 01:22:00,21.0,18.0,30.17,West,267,10.0,18.0,87,0.00,,,0.58,,2013-01-14 06:22:00,
2013-01-14 01:33:00,20.0,16.0,30.18,West,275,11.0,15.0,86,0.00,,,0.58,,2013-01-14 06:33:00,
2013-01-14 01:43:00,20.0,16.0,30.18,West,275,11.0,15.0,86,0.00,,,0.58,,2013-01-14 06:43:00,
2013-01-14 01:53:00,20.0,16.0,30.19,WSW,254,6.0,15.0,86,0.00,,,0.58,,2013-01-14 06:53:00,
2013-01-14 02:02:00,20.0,16.0,30.20,WSW,253,10.0,18.0,86,0.00,,,0.58,,2013-01-14 07:02:00,
2013-01-14 02:12:00,20.0,16.0,30.20,WSW,253,10.0,18.0,86,0.00,,,0.58,,2013-01-14 07:12:00,
2013-01-14 02:23:00,19.0,16.0,30.21,WSW,247,10.0,16.0,86,0.00,,,0.44,,2013-01-14 07:23:00,
2013-01-14 02:33:00,19.0,16.0,30.23,West,265,7.0,18.0,86,0.00,,,0.44,,2013-01-14 07:33:00,
2013-01-14 02:43:00,19.0,16.0,30.23,West,265,7.0,18.0,86,0.00,,,0.44,,2013-01-14 07:43:00,
2013-01-14 02:53:00,19.0,16.0,30.24,West,259,9.0,16.0,86,0.00,,,0.44,,2013-01-14 07:53:00,
2013-01-14 03:02:00,19.0,16.0,30.24,West,280,9.0,15.0,86,0.00,,,0.44,,2013-01-14 08:02:00,
2013-01-14 03:12:00,19.0,16.0,30.24,West,280,9.0,15.0,86,0.00,,,0.44,,2013-01-14 08:12:00,
2013-01-14 03:22:00,18.0,14.0,30.26,SW,234,9.0,14.0,85,0.00,,,0.27,,2013-01-14 08:22:00,
2013-01-14 03:33:00,18.0,14.0,30.27,WSW,239,8.0,16.0,84,0.00,,,0.27,,2013-01-14 08:33:00,
2013-01-14 03:42:00,18.0,14.0,30.27,WSW,239,8.0,16.0,84,0.00,,,0.27,,2013-01-14 08:42:00,
2013-01-14 03:53:00,17.0,13.0,30.26,WSW,254,12.0,24.0,85,0.00,,,0.27,,2013-01-14 08:53:00,
2013-01-14 04:03:00,17.0,13.0,30.27,WSW,250,12.0,17.0,84,0.00,,,0.27,,2013-01-14 09:03:00,
2013-01-14 04:12:00,17.0,13.0,30.27,WSW,250,12.0,17.0,84,0.00,,,0.27,,2013-01-14 09:12:00,
2013-01-14 04:23:00,17.0,13.0,30.28,WSW,257,8.0,13.0,85,0.00,,,0.22,,2013-01-14 09:23:00,
2013-01-14 04:33:00,17.0,13.0,30.28,West,259,9.0,16.0,85,0.00,,,0.22,,2013-01-14 09:33:00,
2013-01-14 04:43:00,17.0,13.0,30.28,West,259,9.0,16.0,85,0.00,,,0.22,,2013-01-14 09:43:00,
2013-01-14 04:53:00,17.0,13.0,30.28,West,263,8.0,17.0,85,0.00,,,0.22,,2013-01-14 09:53:00,
2013-01-14 05:02:00,17.0,14.0,30.29,West,267,10.0,16.0,86,0.00,,,0.22,,2013-01-14 10:02:00,
2013-01-14 05:12:00,17.0,14.0,30.29,West,267,10.0,16.0,86,0.00,,,0.22,,2013-01-14 10:12:00,
2013-01-14 05:23:00,17.0,13.0,30.29,West,278,10.0,15.0,85,0.00,,,0.22,,2013-01-14 10:23:00,
2013-01-14 05:32:00,17.0,14.0,30.29,West,266,9.0,14.0,86,0.00,,,0.22,,2013-01-14 10:32:00,
2013-01-14 05:42:00,17.0,14.0,30.29,West,266,9.0,14.0,86,0.00,,,0.22,,2013-01-14 10:42:00,
2013-01-14 05:53:00,17.0,14.0,30.29,WSW,248,8.0,13.0,86,0.00,,,0.22,,2013-01-14 10:53:00,
2013-01-14 06:02:00,17.0,14.0,30.30,West,271,6.0,12.0,86,0.00,,,0.22,,2013-01-14 11:02:00,
2013-01-14 06:12:00,17.0,14.0,30.30,West,271,6.0,12.0,86,0.00,,,0.22,,2013-01-14 11:12:00,
2013-01-14 06:22:00,17.0,13.0,30.30,West,270,9.0,14.0,85,0.00,,,0.22,,2013-01-14 11:22:00,
2013-01-14 06:33:00,17.0,14.0,30.30,West,265,7.0,12.0,86,0.00,,,0.22,,2013-01-14 11:33:00,
2013-01-14 06:43:00,17.0,14.0,30.30,West,265,7.0,12.0,86,0.00,,,0.22,,2013-01-14 11:43:00,
2013-01-14 06:53:00,17.0,14.0,30.31,West,271,8.0,10.0,86,0.00,,,0.22,,2013-01-14 11:53:00,
2013-01-14 07:03:00,17.0,14.0,30.32,West,259,5.0,11.0,87,0.00,,,0.22,,2013-01-14 12:03:00,
2013-01-14 07:12:00,17.0,14.0,30.32,West,259,5.0,11.0,87,0.00,,,0.22,,2013-01-14 12:12:00,
2013-01-14 07:23:00,17.0,14.0,30.33,WSW,249,7.0,11.0,86,0.00,,,0.22,,2013-01-14 12:23:00,
2013-01-14 07:33:00,17.0,14.0,30.33,WNW,286,5.0,11.0,87,0.00,,,0.22,,2013-01-14 12:33:00,
2013-01-14 07:43:00,17.0,14.0,30.33,WNW,286,5.0,11.0,87,0.00,,,0.22,,2013-01-14 12:43:00,
2013-01-14 07:53:00,17.0,14.0,30.35,West,269,7.0,10.0,87,0.00,,,0.22,,2013-01-14 12:53:00,
2013-01-14 08:03:00,17.0,14.0,30.35,West,259,7.0,10.0,87,0.00,,,0.22,,2013-01-14 13:03:00,
2013-01-14 08:13:00,17.0,14.0,30.35,West,259,7.0,10.0,87,0.00,,,0.22,,2013-01-14 13:13:00,
2013-01-14 08:23:00,17.0,14.0,30.35,West,276,6.0,11.0,87,0.00,,,0.22,,2013-01-14 13:23:00,
2013-01-14 08:33:00,18.0,15.0,30.36,WNW,294,7.0,11.0,88,0.00,,,0.22,,2013-01-14 13:33:00,
2013-01-14 08:43:00,18.0,15.0,30.36,WNW,294,7.0,11.0,88,0.00,,,0.22,,2013-01-14 13:43:00,
2013-01-14 08:53:00,18.0,15.0,30.37,WNW,300,7.0,11.0,88,0.00,,,0.22,,2013-01-14 13:53:00,
2013-01-14 09:03:00,18.0,15.0,30.37,West,267,3.0,8.0,88,0.00,,,0.22,,2013-01-14 14:03:00,
2013-01-14 09:13:00,18.0,15.0,30.37,West,267,3.0,8.0,88,0.00,,,0.22,,2013-01-14 14:13:00,
2013-01-14 09:23:00,18.0,15.0,30.38,WSW,249,5.0,7.0,87,0.00,,,0.22,,2013-01-14 14:23:00,
2013-01-14 09:33:00,18.0,15.0,30.38,West,269,4.0,6.0,87,0.00,,,0.22,,2013-01-14 14:33:00,
2013-01-14 09:43:00,18.0,15.0,30.38,West,269,4.0,6.0,87,0.00,,,0.22,,2013-01-14 14:43:00,
2013-01-14 09:53:00,19.0,16.0,30.39,West,277,5.0,8.0,88,0.00,,,0.22,,2013-01-14 14:53:00,
2013-01-14 10:03:00,20.0,17.0,30.39,WNW,298,6.0,9.0,88,0.00,,,0.22,,2013-01-14 15:03:00,
2013-01-14 10:12:00,20.0,17.0,30.39,WNW,298,6.0,9.0,88,0.00,,,0.22,,2013-01-14 15:12:00,
2013-01-14 10:23:00,20.0,16.0,30.38,WNW,286,6.0,11.0,86,0.00,,,0.22,,2013-01-14 15:23:00,
2013-01-14 10:33:00,20.0,17.0,30.38,West,265,4.0,11.0,87,0.00,,,0.22,,2013-01-14 15:33:00,
2013-01-14 10:43:00,20.0,17.0,30.38,West,265,4.0,11.0,87,0.00,,,0.22,,2013-01-14 15:43:00,
2013-01-14 10:53:00,20.0,17.0,30.38,NW,316,8.0,13.0,87,0.00,,,0.22,,2013-01-14 15:53:00,
2013-01-14 11:03:00,20.0,16.0,30.38,West,261,3.0,11.0,86,0.00,,,0.22,,2013-01-14 16:03:00,
2013-01-14 11:12:00,20.0,16.0,30.38,West,261,3.0,11.0,86,0.00,,,0.22,,2013-01-14 16:12:00,
2013-01-14 11:23:00,21.0,17.0,30.37,North,351,4.0,11.0,86,0.00,,,0.22,,2013-01-14 16:23:00,
2013-01-14 11:33:00,21.0,17.0,30.37,NNE,31,3.0,12.0,85,0.00,,,0.22,,2013-01-14 16:33:00,
2013-01-14 11:43:00,21.0,17.0,30.37,NNE,31,3.0,12.0,85,0.00,,,0.22,,2013-01-14 16:43:00,
2013-01-14 11:53:00,21.0,17.0,30.36,NNE,13,4.0,10.0,84,0.00,,,0.22,,2013-01-14 16:53:00,
2013-01-14 12:03:00,22.0,18.0,30.36,NW,318,5.0,10.0,85,0.00,,,0.22,,2013-01-14 17:03:00,
2013-01-14 12:12:00,22.0,18.0,30.36,NW,318,5.0,10.0,85,0.00,,,0.22,,2013-01-14 17:12:00,
2013-01-14 12:23:00,22.0,18.0,30.36,NW,325,4.0,7.0,84,0.00,,,0.22,,2013-01-14 17:23:00,
2013-01-14 12:33:00,22.0,18.0,30.36,NW,323,4.0,7.0,84,0.00,,,0.22,,2013-01-14 17:33:00,
2013-01-14 12:43:00,22.0,18.0,30.36,NW,323,4.0,7.0,84,0.00,,,0.22,,2013-01-14 17:43:00,
2013-01-14 12:54:00,22.0,18.0,30.36,NNW,339,5.0,7.0,84,0.00,,,0.22,,2013-01-14 17:54:00,
2013-01-14 13:03:00,22.0,18.0,30.36,WNW,302,2.0,8.0,83,0.00,,,0.22,,2013-01-14 18:03:00,
2013-01-14 13:13:00,22.0,18.0,30.36,WNW,302,2.0,8.0,83,0.00,,,0.22,,2013-01-14 18:13:00,
2013-01-14 13:23:00,22.0,17.0,30.36,NW,318,3.0,6.0,82,0.00,,,0.21,,2013-01-14 18:23:00,
2013-01-14 13:33:00,23.0,19.0,30.37,WNW,293,0.0,6.0,83,0.00,,,0.21,,2013-01-14 18:33:00,
2013-01-14 13:43:00,23.0,19.0,30.37,WNW,293,0.0,6.0,83,0.00,,,0.21,,2013-01-14 18:43:00,
2013-01-14 13:53:00,23.0,18.0,30.37,West,269,5.0,7.0,82,0.00,,,0.21,,2013-01-14 18:53:00,
2013-01-14 14:03:00,23.0,19.0,30.38,West,261,3.0,8.0,83,0.00,,,0.21,,2013-01-14 19:03:00,
2013-01-14 14:13:00,23.0,19.0,30.38,West,261,3.0,8.0,83,0.00,,,0.21,,2013-01-14 19:13:00,
2013-01-14 14:22:00,23.0,18.0,30.38,NW,304,4.0,8.0,81,0.00,,,0.21,,2013-01-14 19:22:00,
2013-01-14 14:33:00,23.0,18.0,30.36,NNW,327,3.0,6.0,81,0.00,,,0.21,,2013-01-14 19:33:00,
2013-01-14 14:43:00,23.0,18.0,30.36,NNW,327,3.0,6.0,81,0.00,,,0.21,,2013-01-14 19:43:00,
2013-01-14 14:53:00,23.0,18.0,30.37,NW,316,2.0,6.0,81,0.00,,,0.21,,2013-01-14 19:53:00,
2013-01-14 15:03:00,23.0,18.0,30.39,NW,313,4.0,7.0,81,0.00,,,0.21,,2013-01-14 20:03:00,
2013-01-14 15:13:00,23.0,18.0,30.39,NW,313,4.0,7.0,81,0.00,,,0.21,,2013-01-14 20:13:00,
2013-01-14 15:23:00,23.0,18.0,30.38,WNW,289,4.0,7.0,81,0.00,,,0.13,,2013-01-14 20:23:00,
2013-01-14 15:33:00,23.0,18.0,30.39,NW,317,3.0,8.0,80,0.00,,,0.13,,2013-01-14 20:33:00,
2013-01-14 15:43:00,23.0,18.0,30.39,NW,317,3.0,8.0,80,0.00,,,0.13,,2013-01-14 20:43:00,
2013-01-14 15:53:00,24.0,18.0,30.40,WNW,286,4.0,6.0,79,0.00,,,0.13,,2013-01-14 20:53:00,
2013-01-14 16:03:00,24.0,18.0,30.41,West,275,2.0,6.0,79,0.00,,,0.13,,2013-01-14 21:03:00,
2013-01-14 16:13:00,24.0,18.0,30.41,West,275,2.0,6.0,79,0.00,,,0.13,,2013-01-14 21:13:00,
2013-01-14 16:23:00,24.0,18.0,30.41,WNW,298,2.0,4.0,79,0.00,,,0.02,,2013-01-14 21:23:00,
2013-01-14 16:33:00,24.0,19.0,30.43,West,263,2.0,6.0,81,0.00,,,0.02,,2013-01-14 21:33:00,
2013-01-14 16:43:00,24.0,19.0,30.43,West,263,2.0,6.0,81,0.00,,,0.02,,2013-01-14 21:43:00,
2013-01-14 16:53:00,24.0,19.0,30.41,West,266,4.0,5.0,81,0.00,,,0.02,,2013-01-14 21:53:00,
2013-01-14 17:03:00,24.0,19.0,30.42,West,281,4.0,6.0,80,0.00,,,0.02,,2013-01-14 22:03:00,
2013-01-14 17:12:00,24.0,19.0,30.42,West,281,4.0,6.0,80,0.00,,,0.02,,2013-01-14 22:12:00,
2013-01-14 17:23:00,24.0,19.0,30.42,WSW,244,2.0,5.0,81,0.00,,,0.01,,2013-01-14 22:23:00,
2013-01-14 17:33:00,23.0,18.0,30.42,SW,234,3.0,6.0,82,0.00,,,0.01,,2013-01-14 22:33:00,
2013-01-14 17:43:00,23.0,18.0,30.42,SW,234,3.0,6.0,82,0.00,,,0.01,,2013-01-14 22:43:00,
2013-01-14 17:53:00,23.0,18.0,30.42,WSW,245,5.0,7.0,82,0.00,,,0.01,,2013-01-14 22:53:00,
2013-01-14 18:03:00,23.0,19.0,30.42,WSW,252,3.0,7.0,83,0.00,,,0.01,,2013-01-14 23:03:00,
2013-01-14 18:12:00,23.0,19.0,30.42,WSW,252,3.0,7.0,83,0.00,,,0.01,,2013-01-14 23:12:00,
2013-01-14 18:23:00,23.0,19.0,30.41,WSW,254,4.0,6.0,83,0.00,,,0.00,,2013-01-14 23:23:00,
2013-01-14 18:33:00,23.0,19.0,30.41,West,261,3.0,5.0,84,0.00,,,0.00,,2013-01-14 23:33:00,
2013-01-14 18:43:00,23.0,19.0,30.41,West,261,3.0,5.0,84,0.00,,,0.00,,2013-01-14 23:43:00,
2013-01-14 18:53:00,23.0,19.0,30.41,West,272,4.0,6.0,84,0.00,,,0.00,,2013-01-14 23:53:00,
2013-01-14 19:03:00,23.0,19.0,30.40,West,259,4.0,6.0,84,0.00,,,0.00,,2013-01-15 00:03:00,
2013-01-14 19:12:00,23.0,19.0,30.40,West,259,4.0,6.0,84,0.00,,,0.00,,2013-01-15 00:12:00,
2013-01-14 19:23:00,23.0,19.0,30.40,West,271,1.0,5.0,85,0.00,,,0.00,,2013-01-15 00:23:00,
2013-01-14 19:33:00,23.0,19.0,30.40,WSW,255,2.0,5.0,85,0.00,,,0.00,,2013-01-15 00:33:00,
2013-01-14 19:43:00,23.0,19.0,30.40,WSW,255,2.0,5.0,85,0.00,,,0.00,,2013-01-15 00:43:00,
2013-01-14 19:53:00,22.0,18.0,30.39,West,262,3.0,5.0,86,0.00,,,0.00,,2013-01-15 00:53:00,
2013-01-14 20:02:00,22.0,18.0,30.39,West,270,1.0,4.0,86,0.00,,,0.00,,2013-01-15 01:02:00,
2013-01-14 20:12:00,22.0,19.0,30.39,West,267,2.0,4.0,87,0.00,,,0.00,,2013-01-15 01:12:00,
2013-01-14 20:22:00,22.0,19.0,30.39,West,267,2.0,4.0,87,0.00,,,0.00,,2013-01-15 01:22:00,
2013-01-14 20:32:00,21.0,18.0,30.38,West,277,3.0,4.0,87,0.00,,,0.00,,2013-01-15 01:32:00,
2013-01-14 20:43:00,21.0,18.0,30.38,West,277,3.0,4.0,87,0.00,,,0.00,,2013-01-15 01:43:00,
2013-01-14 20:52:00,21.0,18.0,30.38,West,271,3.0,5.0,88,0.00,,,0.00,,2013-01-15 01:52:00,
2013-01-14 21:02:00,21.0,18.0,30.38,West,267,1.0,2.0,88,0.00,,,0.00,,2013-01-15 02:02:00,
2013-01-14 21:12:00,21.0,18.0,30.38,West,267,1.0,2.0,88,0.00,,,0.00,,2013-01-15 02:12:00,
2013-01-14 21:23:00,20.0,17.0,30.38,West,267,2.0,3.0,89,0.00,,,0.00,,2013-01-15 02:23:00,
2013-01-14 21:32:00,20.0,17.0,30.37,West,267,1.0,2.0,89,0.00,,,0.00,,2013-01-15 02:32:00,
2013-01-14 21:42:00,20.0,17.0,30.37,West,267,1.0,2.0,89,0.00,,,0.00,,2013-01-15 02:42:00,
2013-01-14 21:53:00,20.0,17.0,30.37,West,267,0.0,1.0,89,0.00,,,0.00,,2013-01-15 02:53:00,
2013-01-14 22:03:00,20.0,18.0,30.37,West,267,0.0,0.0,90,0.00,,,0.00,,2013-01-15 03:03:00,
2013-01-14 22:12:00,20.0,18.0,30.37,West,267,0.0,0.0,90,0.00,,,0.00,,2013-01-15 03:12:00,
2013-01-14 22:22:00,20.0,18.0,30.37,West,267,0.0,0.0,91,0.00,,,0.00,,2013-01-15 03:22:00,
2013-01-14 22:33:00,20.0,18.0,30.37,West,267,0.0,2.0,91,0.00,,,0.00,,2013-01-15 03:33:00,
2013-01-14 22:42:00,20.0,18.0,30.37,West,267,0.0,2.0,91,0.00,,,0.00,,2013-01-15 03:42:00,
2013-01-14 22:53:00,19.0,17.0,30.37,West,267,0.0,1.0,90,0.00,,,0.00,,2013-01-15 03:53:00,
2013-01-14 23:02:00,19.0,17.0,30.37,West,267,0.0,1.0,91,0.00,,,0.00,,2013-01-15 04:02:00,
2013-01-14 23:12:00,19.0,17.0,30.37,West,267,0.0,1.0,91,0.00,,,0.00,,2013-01-15 04:12:00,
2013-01-14 23:22:00,19.0,17.0,30.37,West,267,0.0,0.0,91,0.00,,,0.00,,2013-01-15 04:22:00,
2013-01-14 23:32:00,19.0,17.0,30.37,West,267,0.0,2.0,92,0.00,,,0.00,,2013-01-15 04:32:00,
2013-01-14 23:42:00,19.0,17.0,30.37,West,267,0.0,2.0,92,0.00,,,0.00,,2013-01-15 04:42:00,
2013-01-14 23:52:00,19.0,17.0,30.37,West,267,1.0,2.0,92,0.00,,,0.00,,2013-01-15 04:52:00,